Home   Weather   Słupsk   Past weeks

Flag for Poland Past Weather in Słupsk, Poland — Yesterday and Last 2 Weeks

Now
39 °F

Passing clouds.


Feels Like: 27 °F
Forecast: 34 / 50 °F
Wind: 26 mph from Southwest

Location: Leba

Current Time: Apr 26, 2017 at 8:16:36 am

Latest Report: Apr 26, 2017 at 7:00 am


Visibility: 9 mi

Pressure: 29.76 "Hg

Humidity: 90%

Dew Point: 36 °F

Location of SłupskLocation

Past Weather in Słupsk — Graph

°F

Słupsk Temperature Yesterday

Maximum temperature yesterday: 44 °F (at 12:00 am)
Minimum temperature yesterday: 36 °F (at 9:00 am)
Average temperature yesterday: 40 °F

High & Low Weather Summary for the Past Weeks

 TemperatureHumidityPressure
High49 °F (Apr 23, 1:00 pm)98% (Apr 17, 4:00 am)30.58 "Hg (Apr 17, 4:00 am)
Low25 °F (Apr 20, 5:00 am)43% (Apr 18, 11:00 am)29.50 "Hg (Apr 13, 1:00 am)
Average41 °F80%29.91 "Hg
* Reported Apr 11 6:00 am — Apr 26 6:00 am, Słupsk, Weather by CustomWeather, © 2017

Note: Actual official high and low records may vary slightly from our data, if they occured in-between our weather recording intervals... More about our weather records

Advertising

Słupsk Weather History for the Previous 24 Hours

Scroll right to see more
 ConditionsComfort  
Time TempWeatherWind HumidityBarometerVisibility
6:00 am
Wed, Apr 26
38 °FPartly sunny.9 mph89%29.73 "Hg12 mi
5:00 am38 °FPassing clouds.8 mph89%29.72 "Hg12 mi
4:00 am38 °FPassing clouds.10 mph90%29.71 "Hg12 mi
3:00 am38 °FPassing clouds.10 mph90%29.70 "Hg12 mi
2:00 am36 °FPassing clouds.8 mph90%29.70 "Hg12 mi
1:00 am37 °FPassing clouds.8 mph88%29.70 "Hg12 mi
12:00 am38 °FPassing clouds.8 mph90%29.68 "Hg12 mi
11:00 pm
Tue, Apr 25
38 °FPassing clouds.8 mph87%29.67 "Hg12 mi
10:00 pm39 °FClear.9 mph84%29.67 "Hg12 mi
8:00 pm41 °FOvercast.10 mph77%29.64 "Hg12 mi
7:00 pm42 °FOvercast.7 mph76%29.63 "Hg12 mi
6:00 pm43 °FOvercast.8 mph75%29.62 "Hg12 mi
4:00 pm43 °FOvercast.7 mph76%29.61 "Hg12 mi
3:00 pm41 °FOvercast.6 mph75%29.59 "Hg12 mi
2:00 pm40 °FOvercast.5 mph73%29.59 "Hg12 mi
1:00 pm39 °FOvercast.3 mph83%29.59 "Hg12 mi
12:00 pm39 °FOvercast.2 mph87%29.58 "Hg12 mi
11:00 am38 °FLight rain. Overcast.1 mph89%29.57 "Hg6 mi
10:00 am37 °FLight rain. Overcast.2 mph94%29.57 "Hg6 mi
9:00 am36 °FLight rain. Overcast.3 mph94%29.58 "Hg6 mi
8:00 am37 °FLight rain. Overcast.2 mph91%29.59 "Hg9 mi
Weather by CustomWeather, © 2017

See weather overviewHow to use our weather pages